User: anonymous
Location: Brno
(49.2000°N, 16.6330°E)
Time: 02:16:15
(UTC+02:00)
Language:

ISS - Orbit

View from above orbital plane
View from above orbital plane
View from above satellite
View from above satellite

Ground track
Ground track

The orbit data is extracted from the following two-line orbital elements,

1 25544U 98067A   14242.88324878  .00012529  00000-0  22615-3 0  9966
2 25544 051.6458 089.3535 0003702 064.5216 065.1067 15.50124048902916
Epoch (UTC): 30 August 2014 21:11:52
Eccentricity: 0.0003702
inclination: 51.6458°
perigee height: 414 km
apogee height: 419 km
right ascension of ascending node: 89.3535°
argument of perigee: 64.5216°
revolutions per day: 15.50124048
mean anomaly at epoch: 65.1067°
orbit number at epoch: 90291

The dashed part of the orbit path shows where the satellite is in the earth's shadow,  

DLR